Regional Weather Roundup
Issued by NWS Bismarck, ND

Home | Current Version | Previous Version | Text Only | Print | Product List | Glossary On
Versions: 1 2 3 4 5 6 7 8 9 10 11 12 13 14 15 16 17 18 19 20 21 22 23 24 25 26 27 28 29 30 31 32 33 34 35 36 37 38 39 40 41 42 43 44 45 46 47 48 49 50
000
ASUS43 KBIS 172002
RWRBIS

NWR BROADCAST TEXT
NATIONAL WEATHER SERVICE BISMARCK ND
200 PM CST FRI NOV 17 2017

NOTE: "FAIR" INDICATES FEW OR NO CLOUDS BELOW 12,000 FEET WITH NO
SIGNIFICANT WEATHER AND/OR OBSTRUCTIONS TO VISIBILITY.


CITY           SKY/WX    TMP DP  RH WIND       PRES   REMARKS
WILLISTON      SUNNY     31  16  54 VRB3      29.65F
MINOT          SUNNY     27  13  55 NW6       29.67F
MINOT AFB      NOT AVBL
BISMARCK       MOSUNNY   36  24  62 CALM      29.69S
DICKINSON      PTSUNNY   40  25  55 SE6       29.62S
GARRISON         N/A     29  18  63 CALM      29.68R
HETTINGER ARPT CLOUDY    43  24  47 SW5       29.65R
JAMESTOWN      SUNNY     28  17  63 NW13      29.68R WCI  17
CARRINGTON     FAIR      21  16  79 NW9       29.71R WCI  11
HAZEN          FAIR      32  25  74 CALM      29.70S
LINTON           N/A     37  19  48 N7        29.69S
MANDAN         FAIR      32  21  64 CALM      29.68F
OAKES            N/A     36  21  55 N14       29.66R
RUGBY          FAIR      21  14  73 NW9       29.68F WCI  11
STANLEY        FAIR      27  16  63 N5        29.65F
TIOGA          FAIR      28  16  59 CALM      29.64F
WATFORD CITY   FAIR      34  19  55 N3        29.63S
$$

CITY           SKY/WX    TMP DP  RH WIND       PRES   REMARKS
GRAND FORKS    CLOUDY    26  17  68 NW14      29.67F WCI  14
GRAND FORKS AF CLOUDY    25  15  66 NW13      29.67F WCI  14
DEVILS LAKE    CLOUDY    21  15  78 W9        29.69S WCI  11
FARGO          MOSUNNY   37  26  64 N14       29.64F
CANDO          FAIR      23  16  74 NW9       29.70S WCI  13
CAVALIER       FAIR      23  14  68 NW12      29.69S WCI  12
GRAFTON        FAIR      23  16  74 NW12      29.71F WCI  12
GWINNER          N/A     39  25  56 N10       29.65R
LANGDON        FAIR      21  18  86 NW17      29.65S WCI   7
ROLLA          FAIR      23  14  68 N6        29.66S WCI  16
WALHALLA       FAIR      23  16  74 NW9G15    29.69S WCI  13
$$

CITY           SKY/WX    TMP DP  RH WIND       PRES   REMARKS
ABERDEEN       CLOUDY    44  30  57 N14       29.65R
MOBRIDGE       CLOUDY    43  30  60 N6        29.64R
BUFFALO          N/A     44  33  65 W10       29.58R
RAPID CITY     CLOUDY    42  34  73 S8        29.64R
GLASGOW        MOSUNNY   40  25  55 SW6       29.61R
SIDNEY         MOSUNNY   36  24  62 CALM      29.63F
WOLF POINT     SUNNY     38  25  59 CALM      29.63S
GLENDIVE       PTSUNNY   40  29  64 SE3       29.62S
MILES CITY     PTSUNNY   46  36  68 W9        29.63R
BAKER          CLOUDY    44  32  62 W7        29.63S
$$

CITY           SKY/WX    TMP DP  RH WIND       PRES   REMARKS
BILLINGS       CLOUDY    41  30  65 W9        29.67S
GREAT FALLS    SUNNY     44  16  32 W24G36    29.66R
$$




USA.gov is the U.S. government's official web portal to all federal, state and local government web resources and services.